SCP
0 0 0 0 0 0 0 0 0 0 0 0 0 0 0 0 0 0 0 0 -0 -0 -0 -0 -0 -0 -1 -1 -1 -1 -1 -0 -0 -0 -0 -0 -0 -0 -0 -0 -0 0 -0 0 0 0 0 0 0
0 0 0 0 0 0 0 0 0 0 0 0 0 0 0 0 0 0 0 0 -0 -0 -0 -0 -0 -0 -0 -1 -1 -1 -1 -1 -1 -0 -0 -0 -0 -0 -0 -0 -0 -0 -0 0 0 0 0 0 0
0 0 0 0 0 0 0 0 0 0 0 0 0 0 0 0 0 0 0 -0 -0 -0 -0 -0 -0 -0 -0 -1 -1 -1 -1 -1 -1 -0 -0 -0 -0 -0 -0 -0 -0 -0 -0 0 0 0 0 0 0
0 0 0 0 0 0 0 0 0 0 0 0 0 0 0 0 0 0 -0 -0 -0 -0 -0 -0 -0 -0 -0 -0 -1 -1 -1 -1 -0 -0 -0 -0 -0 -0 -0 -0 0 0 0 0 0 0 0 0 0
0 0 0 0 0 0 0 0 0 0 0 0 0 0 0 1 0 0 -0 -0 -0 -0 -0 -0 -0 -0 -0 -0 -0 -1 -1 -1 -0 -0 -0 -0 -0 -0 0 0 0 0 0 0 0 0 0 -0 -0
0 0 0 0 0 0 0 0 0 0 0 0 0 0 0 1 0 0 -0 -0 -0 -0 -0 -0 -0 -0 -0 -0 -0 -0 -0 -0 -0 -0 -0 -0 -0 -0 -0 -0 0 0 0 0 0 0 0 0 -0
0 0 0 0 0 0 0 0 0 0 0 0 0 0 1 1 1 0 0 -0 -0 -0 -0 -0 -0 -0 -0 -0 -0 -0 -0 -0 -0 -0 -0 -0 -0 -0 -0 -0 -0 -0 0 0 0 0 -0 -0 -0
0 0 0 0 0 0 0 0 0 0 0 0 0 0 0 2 1 1 0 0 0 -0 -0 -0 -0 -0 -0 0 -0 -0 -0 -0 -0 -0 -0 -0 -0 -0 -0 0 0 -0 -0 0 -0 0 0 0 0
0 0 0 0 0 0 0 0 0 0 0 0 0 0 2 1 1 1 1 0 0 0 0 -0 0 0 0 -0 0 -0 -0 -0 -0 -0 -0 -0 0 -0 -0 0 -0 0 0 0 0 0 0 0 0
0 0 0 0 0 0 0 0 0 0 0 0 0 0 1 1 1 1 1 0 0 0 0 0 0 0 0 0 0 -0 0 0 0 0 0 0 0 0 0 0 0 0 0 0 0 0 0 0 0
0 0 0 0 0 0 0 0 0 0 0 0 0 0 0 1 2 2 1 1 0 0 0 0 0 0 0 0 0 0 0 0 0 0 0 0 0 0 0 0 0 0 0 0 0 0 0 0 0
0 0 0 0 0 0 0 0 0 0 0 0 0 0 0 0 2 2 1 1 0 0 0 0 0 0 0 0 0 0 0 0 0 0 0 0 0 0 0 0 0 0 0 0 0 0 0 0 0
0 0 0 0 0 0 0 0 0 0 0 0 0 0 0 0 0 2 2 1 1 0 0 0 0 0 0 0 0 0 0 0 0 0 0 0 0 0 0 0 0 0 0 0 0 0 0 0 0
0 0 0 0 0 0 0 0 0 0 0 0 0 0 0 0 0 2 3 2 1 1 0 0 0 1 0 0 0 0 0 0 0 0 1 0 0 0 0 0 0 0 0 0 0 0 0 0 0
0 0 0 0 0 0 0 0 0 0 0 0 0 0 0 0 0 0 0 4 2 1 1 1 1 1 1 1 1 1 1 0 1 1 1 1 1 1 0 0 0 0 0 0 0 0 0 0 0
0 0 0 0 0 0 0 0 0 0 0 0 0 0 0 0 0 0 0 0 2 2 2 1 1 1 1 1 1 1 1 1 1 1 1 1 1 1 1 0 0 1 1 1 1 0 0 0 0
0 0 0 0 0 0 0 0 0 0 0 0 0 0 0 0 0 0 0 0 0 1 2 2 1 1 1 1 2 2 2 1 1 1 1 1 1 1 1 1 1 3 1 1 1 1 1 0 0
0 0 0 0 0 0 0 0 0 0 0 0 0 0 0 0 0 0 0 0 0 0 0 1 2 1 2 2 2 2 2 2 2 2 2 2 2 1 1 1 1 1 1 1 1 2 1 1 0
0 0 0 0 0 0 0 0 0 0 0 0 0 0 0 0 0 0 0 0 0 0 0 0 1 3 3 3 4 3 3 4 3 3 3 3 2 2 1 1 1 1 1 1 2 1 1 1 2
0 0 0 0 0 0 0 0 0 0 0 0 0 0 0 0 0 0 0 0 0 0 0 0 2 3 4 4 5 4 5 4 4 5 5 3 2 2 1 1 1 1 1 2 2 2 1 1 1
0 0 0 0 0 0 0 0 0 0 0 0 0 0 0 0 0 0 0 0 0 0 0 0 2 3 4 3 4 5 4 4 3 3 2 2 2 1 1 1 1 2 1 2 2 2 1 1 1
0 0 0 0 0 0 0 0 0 0 0 0 0 0 0 0 0 0 0 0 0 0 0 0 0 2 3 3 3 2 2 2 1 2 2 2 1 1 1 1 1 2 2 2 2 2 2 2 1
0 0 0 0 0 0 0 0 0 0 0 0 0 0 0 0 0 0 0 0 0 0 0 0 1 2 2 2 2 1 1 2 1 2 2 2 1 1 1 1 2 2 3 3 2 2 1 1 1
0 0 0 0 0 0 0 0 0 0 0 0 0 0 0 0 0 0 0 0 0 0 0 0 1 2 2 2 2 2 2 2 1 2 2 2 1 1 1 1 2 2 2 1 1 1 1 1 2
0 0 0 0 0 0 0 0 0 0 0 0 0 0 0 0 0 0 0 0 0 0 0 0 1 2 2 1 2 2 2 2 2 2 2 2 2 2 2 2 1 1 1 1 1 1 1 1 1
0 0 0 0 0 0 0 0 0 0 0 -0 0 0 0 0 0 0 0 0 0 0 0 1 1 1 2 2 2 2 2 3 3 3 3 2 2 2 2 1 1 1 1 1 1 1 1 1 1
0 0 -0 0 0 0 0 0 0 0 0 0 0 0 0 0 1 0 0 1 1 1 1 1 1 2 2 2 2 2 2 2 2 2 2 1 1 1 1 1 1 1 1 1 1 1 1 1 1
0 0 0 0 0 0 0 0 0 0 0 0 0 0 1 1 1 2 2 2 1 1 1 1 1 2 2 2 2 1 1 1 1 1 1 0 1 0 0 0 0 0 0 0 0 0 0 0 0
0 0 0 0 0 0 0 0 0 0 0 0 0 1 1 0 1 1 2 2 2 2 2 2 2 1 1 1 1 1 1 0 0 0 0 0 0 0 0 0 0 0 0 0 0 0 0 0 0
0 0 -0 0 0 0 0 0 0 0 0 0 0 0 0 0 1 1 1 2 2 2 2 2 1 1 1 0 0 0 0 0 0 0 0 0 0 0 0 0 0 0 0 0 0 0 0 0 0
Wind_Speed_500mb
13 5 4 9 14 13 26 14 5 11 11 7 12 13 14 12 18 10 14 25 42 50 55 55 53 50 45 44 48 50 50 45 40 32 24 23 30 39 38 34 33 29 26 25 25 25 25 26 28
8 5 7 12 16 25 23 20 19 7 5 8 2 5 13 10 9 14 31 34 45 50 57 58 55 50 47 45 47 52 51 46 41 33 26 26 32 40 37 34 31 27 26 25 25 27 29 30 31
6 13 18 11 23 31 26 20 21 16 1 5 2 4 5 8 8 21 18 42 51 50 58 59 55 52 48 45 47 49 49 47 41 34 29 29 35 39 36 32 29 27 26 25 25 29 32 31 28
8 11 14 20 36 34 34 5 4 16 9 4 6 8 5 7 6 19 35 48 52 50 52 56 55 52 47 45 47 48 48 45 40 35 31 32 37 39 36 31 27 26 25 24 25 28 31 27 23
13 14 21 30 44 38 13 12 14 19 9 6 6 8 1 6 15 26 42 49 52 51 48 56 53 49 46 45 45 44 44 42 40 37 34 35 39 40 34 30 27 26 26 24 24 26 26 26 23
22 17 20 35 41 31 21 26 26 21 19 10 10 9 9 12 21 32 40 46 47 50 48 59 53 47 45 43 42 40 40 40 39 37 36 37 40 39 33 29 27 26 25 24 24 24 25 26 23
31 22 36 41 37 27 27 28 33 26 26 21 5 10 12 13 20 32 40 45 46 47 48 58 56 50 46 42 39 36 34 36 38 38 37 38 41 38 33 29 26 25 24 25 25 25 25 26 27
28 20 43 43 30 34 11 23 24 34 30 5 8 10 17 7 20 32 40 44 45 47 47 53 59 56 51 47 40 34 30 30 35 36 37 39 41 38 33 29 27 24 23 23 24 26 27 28 28
23 21 36 46 38 25 18 23 14 9 16 17 7 5 4 11 21 33 42 45 47 48 48 49 52 53 52 49 48 40 33 30 33 34 36 39 41 40 36 32 29 25 25 26 27 28 29 30 31
30 31 49 38 27 17 28 21 23 16 22 22 17 6 6 12 23 38 45 49 53 53 52 51 51 51 49 43 50 47 42 39 39 40 42 44 40 41 35 36 32 30 28 28 28 30 32 32 27
31 46 33 28 30 29 30 24 20 20 24 27 24 6 2 8 22 34 42 47 53 52 51 52 53 52 50 44 43 41 39 38 41 42 44 43 40 39 44 34 40 38 35 32 32 33 34 29 28
34 44 50 37 36 36 34 35 39 36 35 11 23 8 6 9 20 33 43 46 51 55 53 53 53 53 53 45 44 42 41 40 39 41 44 44 42 39 38 37 33 36 32 33 29 26 29 31 32
47 42 42 52 44 39 39 42 35 39 37 32 33 29 26 22 23 29 40 43 47 51 52 52 52 55 59 54 45 45 44 43 40 42 48 45 41 39 38 38 37 35 32 32 31 31 31 30 32
17 51 59 48 45 48 48 48 46 44 48 50 49 49 40 30 26 25 38 44 48 49 52 51 54 57 62 63 52 47 45 42 42 41 42 54 46 41 38 38 36 34 32 31 31 31 31 31 32
42 30 29 43 53 39 31 49 56 53 49 39 36 48 45 40 30 33 35 40 44 47 47 49 49 52 59 63 62 52 45 45 43 43 46 52 57 48 45 36 35 33 31 32 30 30 31 35 35
35 41 43 44 31 26 26 62 40 56 67 56 54 50 49 51 43 40 36 36 38 43 46 47 46 49 54 59 58 53 48 45 44 42 41 48 55 57 48 40 36 33 32 30 29 30 31 33 34
36 39 49 45 36 39 37 42 29 21 39 46 55 60 54 54 54 45 41 41 42 40 42 45 49 49 49 59 56 52 48 49 44 41 40 41 44 49 55 44 50 48 46 34 32 32 33 34 33
37 41 42 29 36 38 44 46 29 22 24 36 38 46 54 55 62 55 48 45 40 42 46 45 46 47 48 46 51 47 46 46 43 42 39 39 37 39 40 38 39 50 43 40 39 37 33 35 34
44 34 33 38 38 31 41 42 41 49 49 39 38 40 49 53 50 55 53 48 41 46 49 48 50 51 49 48 50 50 51 48 45 42 41 48 44 39 40 34 34 37 37 39 39 34 34 33 34
46 40 36 24 15 28 38 39 36 38 43 50 54 58 59 49 53 53 54 47 47 49 56 59 56 56 59 57 52 48 50 52 46 56 58 51 46 40 40 36 32 35 33 36 33 33 31 31 30
47 50 42 37 29 32 36 41 41 40 45 49 50 59 59 61 60 57 55 52 49 54 51 61 62 63 62 54 51 51 45 47 52 58 55 51 43 39 38 35 34 32 29 30 34 38 42 42 41
46 47 42 36 30 34 34 37 36 46 50 46 54 56 55 58 58 56 58 56 53 59 56 58 65 66 61 56 47 49 37 32 32 34 35 32 36 34 36 38 36 33 35 38 37 36 36 41 46
37 34 32 41 38 35 42 26 38 39 33 40 40 57 54 57 61 60 60 58 55 51 47 55 60 60 53 56 50 43 32 25 31 24 26 30 26 22 25 27 32 35 37 38 38 42 44 44 43
31 23 29 30 31 32 47 36 25 34 38 32 37 41 55 57 58 63 59 53 50 43 44 45 54 55 51 58 49 36 32 31 22 21 23 20 19 20 26 28 33 37 35 39 40 45 48 44 38
33 25 14 19 26 38 27 30 42 7 8 27 34 30 25 40 49 53 49 48 46 45 46 46 47 52 55 46 41 32 26 22 22 24 22 21 18 18 22 32 35 32 38 39 40 39 34 31 32
44 39 17 24 29 34 32 24 28 22 40 25 26 21 19 27 39 45 51 50 47 46 46 48 50 50 45 40 38 33 31 25 20 21 18 13 11 11 22 24 26 24 27 29 33 33 32 32 33
40 48 49 28 22 17 31 35 33 13 19 25 28 20 8 18 30 43 48 50 51 48 49 47 51 52 46 40 35 33 30 27 25 22 21 21 22 21 22 25 30 34 36 37 39 38 37 35 35
54 40 37 24 30 30 29 35 20 15 28 21 24 18 18 24 34 37 43 49 49 50 53 52 53 52 46 44 44 41 35 28 25 23 20 14 10 5 3 6 11 14 16 16 17 15 19 25 26
40 31 38 32 27 20 23 24 7 8 6 14 17 16 23 33 33 38 46 55 58 61 60 58 56 56 53 51 47 42 37 32 27 25 24 23 19 18 16 13 8 6 6 11 11 15 16 15 22
47 40 50 22 29 29 25 2 12 7 6 8 17 19 26 30 45 56 64 73 75 76 68 59 56 53 49 47 47 44 41 38 36 32 27 23 19 15 13 12 9 8 8 9 9 8 10 9 10
Wind_Direction_500mb
277 275 210 229 244 232 245 220 313 182 180 355 306 256 359 331 359 32 146 154 159 164 174 174 174 171 171 168 171 176 175 173 168 168 169 160 162 160 160 161 158 155 154 148 145 144 144 143 138
254 183 213 242 247 236 232 212 213 193 44 339 222 237 242 52 44 111 140 154 159 165 173 176 174 173 172 170 170 175 177 175 176 179 179 170 169 167 167 164 161 158 156 150 148 146 145 143 136
230 181 232 228 237 243 249 168 227 169 198 330 257 304 1 54 76 147 159 156 159 163 172 178 175 174 175 174 174 177 179 181 184 186 185 178 175 172 172 168 166 161 160 154 152 151 149 145 144
212 205 236 238 236 232 250 214 183 197 188 198 345 222 151 68 130 161 159 156 160 164 169 178 177 176 177 179 179 182 184 187 190 191 189 184 180 177 176 172 171 168 168 163 160 161 162 161 161
202 236 238 232 240 244 231 244 217 203 174 237 331 128 128 73 121 152 156 161 162 165 169 177 178 178 180 181 183 186 189 192 194 195 192 188 184 181 180 176 176 177 179 177 175 175 178 181 179
216 248 231 232 236 235 212 238 224 225 221 240 254 280 121 130 135 152 159 162 166 167 169 178 179 180 181 182 185 188 192 196 198 199 195 192 188 185 183 181 183 185 187 190 192 193 194 197 199
242 222 241 244 249 235 212 229 224 234 231 230 250 254 100 141 162 158 163 165 169 170 169 178 179 181 183 184 186 190 196 200 201 199 198 196 192 191 189 190 191 194 197 200 206 208 210 212 216
233 257 249 239 243 233 197 220 231 230 234 234 220 227 164 158 156 162 165 169 173 173 175 176 180 182 185 187 190 192 195 198 199 198 199 198 196 197 199 201 202 203 210 214 220 224 227 230 232
212 239 238 232 227 231 199 222 188 193 219 212 204 251 275 181 163 167 170 173 178 179 182 179 180 183 184 189 191 191 193 194 197 200 201 200 201 204 210 210 212 215 220 223 226 231 235 239 243
212 231 237 247 250 244 190 218 182 196 198 202 197 168 83 161 178 181 182 180 183 183 185 184 183 185 184 188 195 193 195 195 197 201 201 200 200 208 208 219 221 224 228 231 233 237 238 241 243
222 237 241 244 238 253 232 208 202 222 210 218 199 159 155 181 197 198 195 192 187 186 187 189 186 188 186 190 193 192 195 196 199 203 205 201 204 212 214 218 225 227 230 236 239 240 242 241 239
248 233 244 243 234 238 237 239 245 237 239 223 202 239 279 241 216 209 203 197 190 189 189 190 191 193 189 194 196 197 198 200 199 204 210 206 208 213 215 218 224 227 226 230 228 237 235 239 244
229 245 229 244 241 235 251 247 245 244 238 236 244 255 259 251 237 217 204 198 193 192 193 194 195 199 200 195 202 202 202 207 207 209 217 212 214 217 219 222 223 227 231 235 234 239 243 249 252
224 240 248 240 240 243 248 250 239 237 245 249 250 252 247 241 227 208 199 197 195 194 195 194 199 205 207 208 204 206 208 213 210 214 217 223 223 224 222 227 231 231 233 237 240 244 249 257 253
254 247 240 244 247 240 251 256 238 240 238 236 237 242 235 229 224 212 205 203 203 202 198 200 205 209 214 217 217 214 214 212 217 219 224 232 231 228 230 232 234 236 237 236 241 244 252 255 256
230 236 246 229 219 227 215 255 236 232 224 232 231 236 237 230 224 220 214 209 205 208 204 204 206 212 218 217 220 218 217 218 220 222 225 232 237 234 241 233 237 238 239 244 247 252 257 259 259
219 238 230 243 222 218 207 257 229 218 214 226 227 226 232 230 222 219 212 212 207 205 208 208 209 213 222 223 218 219 220 221 222 224 226 231 235 236 240 243 235 240 247 246 247 253 257 259 262
223 223 246 233 230 214 226 243 237 176 218 220 223 222 222 226 220 219 213 208 206 213 212 210 214 219 223 218 220 220 220 224 221 224 226 230 233 235 236 241 243 245 250 254 257 260 253 258 260
259 275 224 236 231 227 234 250 237 238 237 229 220 227 228 227 227 221 219 215 215 221 224 222 220 225 219 215 215 213 219 221 223 222 222 225 235 240 243 241 244 252 244 250 251 255 263 257 256
242 241 237 242 212 249 247 256 242 238 240 231 231 234 237 230 225 224 221 220 221 225 225 226 228 229 228 229 231 227 224 223 222 224 225 233 242 248 246 238 235 244 246 251 247 249 256 259 254
229 236 240 241 226 244 256 258 248 241 240 240 230 234 232 233 228 224 225 223 221 226 230 226 224 230 226 223 227 228 230 233 233 232 235 236 240 244 243 241 241 239 244 248 256 264 263 264 267
236 229 245 253 238 245 226 258 243 229 232 232 227 227 229 227 228 228 224 224 226 229 232 227 224 223 216 213 219 224 216 221 228 226 219 218 241 250 250 254 254 256 252 258 264 269 260 262 264
239 240 217 231 232 243 241 250 250 240 221 233 230 224 228 228 227 227 226 223 223 225 214 217 210 205 204 209 212 218 201 218 239 199 203 221 236 245 254 245 241 254 261 255 257 254 261 266 260
219 230 213 225 232 233 231 233 249 229 223 230 237 225 222 225 226 226 225 222 215 206 197 195 198 200 199 208 200 197 200 203 201 181 201 202 221 237 240 243 253 255 251 251 258 264 263 263 247
208 204 205 210 216 233 214 223 238 287 250 226 230 220 227 233 223 219 214 200 195 188 184 183 181 186 195 193 189 186 194 191 185 186 187 190 197 210 239 248 253 254 249 247 254 258 256 251 252
199 209 210 198 213 232 208 232 228 235 236 231 204 249 257 220 207 197 187 180 175 170 168 168 174 176 174 173 175 178 179 168 166 167 183 183 194 215 235 237 243 245 249 255 259 262 263 255 257
206 208 225 274 288 268 191 226 267 208 231 225 237 234 180 170 166 164 163 162 159 154 155 156 160 163 164 162 162 154 148 146 166 180 190 210 217 229 235 237 237 244 252 256 259 260 258 255 258
228 211 218 217 241 216 238 235 229 210 215 213 205 155 148 155 146 141 147 145 143 143 142 143 145 147 147 149 148 152 154 155 149 153 161 162 157 173 215 248 260 264 267 268 275 293 285 269 269
209 227 212 209 241 235 235 224 111 294 155 198 170 140 145 146 139 142 132 132 129 130 131 133 136 138 139 142 141 135 133 133 130 126 120 110 103 92 85 78 55 358 306 285 278 274 274 273 271
215 207 208 213 208 242 276 249 58 84 145 172 171 145 129 126 133 132 128 128 129 123 120 118 120 120 120 119 122 122 123 123 121 115 110 104 96 82 65 59 41 14 347 323 320 322 315 323 320
Wind_Speed_850mb
13 5 4 9 14 13 26 14 5 11 11 7 12 13 14 12 18 10 14 25 42 50 55 55 53 50 45 44 48 50 50 45 40 32 24 23 30 39 38 34 33 29 26 25 25 25 25 26 28
8 5 7 12 16 25 23 20 19 7 5 8 2 5 13 10 9 14 31 34 45 50 57 58 55 50 47 45 47 52 51 46 41 33 26 26 32 40 37 34 31 27 26 25 25 27 29 30 31
6 13 18 11 23 31 26 20 21 16 1 5 2 4 5 8 8 21 18 42 51 50 58 59 55 52 48 45 47 49 49 47 41 34 29 29 35 39 36 32 29 27 26 25 25 29 32 31 28
8 11 14 20 36 34 34 5 4 16 9 4 6 8 5 7 6 19 35 48 52 50 52 56 55 52 47 45 47 48 48 45 40 35 31 32 37 39 36 31 27 26 25 24 25 28 31 27 23
13 14 21 30 44 38 13 12 14 19 9 6 6 8 1 6 15 26 42 49 52 51 48 56 53 49 46 45 45 44 44 42 40 37 34 35 39 40 34 30 27 26 26 24 24 26 26 26 23
22 17 20 35 41 31 21 26 26 21 19 10 10 9 9 12 21 32 40 46 47 50 48 59 53 47 45 43 42 40 40 40 39 37 36 37 40 39 33 29 27 26 25 24 24 24 25 26 23
31 22 36 41 37 27 27 28 33 26 26 21 5 10 12 13 20 32 40 45 46 47 48 58 56 50 46 42 39 36 34 36 38 38 37 38 41 38 33 29 26 25 24 25 25 25 25 26 27
28 20 43 43 30 34 11 23 24 34 30 5 8 10 17 7 20 32 40 44 45 47 47 53 59 56 51 47 40 34 30 30 35 36 37 39 41 38 33 29 27 24 23 23 24 26 27 28 28
23 21 36 46 38 25 18 23 14 9 16 17 7 5 4 11 21 33 42 45 47 48 48 49 52 53 52 49 48 40 33 30 33 34 36 39 41 40 36 32 29 25 25 26 27 28 29 30 31
30 31 49 38 27 17 28 21 23 16 22 22 17 6 6 12 23 38 45 49 53 53 52 51 51 51 49 43 50 47 42 39 39 40 42 44 40 41 35 36 32 30 28 28 28 30 32 32 27
31 46 33 28 30 29 30 24 20 20 24 27 24 6 2 8 22 34 42 47 53 52 51 52 53 52 50 44 43 41 39 38 41 42 44 43 40 39 44 34 40 38 35 32 32 33 34 29 28
34 44 50 37 36 36 34 35 39 36 35 11 23 8 6 9 20 33 43 46 51 55 53 53 53 53 53 45 44 42 41 40 39 41 44 44 42 39 38 37 33 36 32 33 29 26 29 31 32
47 42 42 52 44 39 39 42 35 39 37 32 33 29 26 22 23 29 40 43 47 51 52 52 52 55 59 54 45 45 44 43 40 42 48 45 41 39 38 38 37 35 32 32 31 31 31 30 32
17 51 59 48 45 48 48 48 46 44 48 50 49 49 40 30 26 25 38 44 48 49 52 51 54 57 62 63 52 47 45 42 42 41 42 54 46 41 38 38 36 34 32 31 31 31 31 31 32
42 30 29 43 53 39 31 49 56 53 49 39 36 48 45 40 30 33 35 40 44 47 47 49 49 52 59 63 62 52 45 45 43 43 46 52 57 48 45 36 35 33 31 32 30 30 31 35 35
35 41 43 44 31 26 26 62 40 56 67 56 54 50 49 51 43 40 36 36 38 43 46 47 46 49 54 59 58 53 48 45 44 42 41 48 55 57 48 40 36 33 32 30 29 30 31 33 34
36 39 49 45 36 39 37 42 29 21 39 46 55 60 54 54 54 45 41 41 42 40 42 45 49 49 49 59 56 52 48 49 44 41 40 41 44 49 55 44 50 48 46 34 32 32 33 34 33
37 41 42 29 36 38 44 46 29 22 24 36 38 46 54 55 62 55 48 45 40 42 46 45 46 47 48 46 51 47 46 46 43 42 39 39 37 39 40 38 39 50 43 40 39 37 33 35 34
44 34 33 38 38 31 41 42 41 49 49 39 38 40 49 53 50 55 53 48 41 46 49 48 50 51 49 48 50 50 51 48 45 42 41 48 44 39 40 34 34 37 37 39 39 34 34 33 34
46 40 36 24 15 28 38 39 36 38 43 50 54 58 59 49 53 53 54 47 47 49 56 59 56 56 59 57 52 48 50 52 46 56 58 51 46 40 40 36 32 35 33 36 33 33 31 31 30
47 50 42 37 29 32 36 41 41 40 45 49 50 59 59 61 60 57 55 52 49 54 51 61 62 63 62 54 51 51 45 47 52 58 55 51 43 39 38 35 34 32 29 30 34 38 42 42 41
46 47 42 36 30 34 34 37 36 46 50 46 54 56 55 58 58 56 58 56 53 59 56 58 65 66 61 56 47 49 37 32 32 34 35 32 36 34 36 38 36 33 35 38 37 36 36 41 46
37 34 32 41 38 35 42 26 38 39 33 40 40 57 54 57 61 60 60 58 55 51 47 55 60 60 53 56 50 43 32 25 31 24 26 30 26 22 25 27 32 35 37 38 38 42 44 44 43
31 23 29 30 31 32 47 36 25 34 38 32 37 41 55 57 58 63 59 53 50 43 44 45 54 55 51 58 49 36 32 31 22 21 23 20 19 20 26 28 33 37 35 39 40 45 48 44 38
33 25 14 19 26 38 27 30 42 7 8 27 34 30 25 40 49 53 49 48 46 45 46 46 47 52 55 46 41 32 26 22 22 24 22 21 18 18 22 32 35 32 38 39 40 39 34 31 32
44 39 17 24 29 34 32 24 28 22 40 25 26 21 19 27 39 45 51 50 47 46 46 48 50 50 45 40 38 33 31 25 20 21 18 13 11 11 22 24 26 24 27 29 33 33 32 32 33
40 48 49 28 22 17 31 35 33 13 19 25 28 20 8 18 30 43 48 50 51 48 49 47 51 52 46 40 35 33 30 27 25 22 21 21 22 21 22 25 30 34 36 37 39 38 37 35 35
54 40 37 24 30 30 29 35 20 15 28 21 24 18 18 24 34 37 43 49 49 50 53 52 53 52 46 44 44 41 35 28 25 23 20 14 10 5 3 6 11 14 16 16 17 15 19 25 26
40 31 38 32 27 20 23 24 7 8 6 14 17 16 23 33 33 38 46 55 58 61 60 58 56 56 53 51 47 42 37 32 27 25 24 23 19 18 16 13 8 6 6 11 11 15 16 15 22
47 40 50 22 29 29 25 2 12 7 6 8 17 19 26 30 45 56 64 73 75 76 68 59 56 53 49 47 47 44 41 38 36 32 27 23 19 15 13 12 9 8 8 9 9 8 10 9 10
Wind_Direction_850mb
277 275 210 229 244 232 245 220 313 182 180 355 306 256 359 331 359 32 146 154 159 164 174 174 174 171 171 168 171 176 175 173 168 168 169 160 162 160 160 161 158 155 154 148 145 144 144 143 138
254 183 213 242 247 236 232 212 213 193 44 339 222 237 242 52 44 111 140 154 159 165 173 176 174 173 172 170 170 175 177 175 176 179 179 170 169 167 167 164 161 158 156 150 148 146 145 143 136
230 181 232 228 237 243 249 168 227 169 198 330 257 304 1 54 76 147 159 156 159 163 172 178 175 174 175 174 174 177 179 181 184 186 185 178 175 172 172 168 166 161 160 154 152 151 149 145 144
212 205 236 238 236 232 250 214 183 197 188 198 345 222 151 68 130 161 159 156 160 164 169 178 177 176 177 179 179 182 184 187 190 191 189 184 180 177 176 172 171 168 168 163 160 161 162 161 161
202 236 238 232 240 244 231 244 217 203 174 237 331 128 128 73 121 152 156 161 162 165 169 177 178 178 180 181 183 186 189 192 194 195 192 188 184 181 180 176 176 177 179 177 175 175 178 181 179
216 248 231 232 236 235 212 238 224 225 221 240 254 280 121 130 135 152 159 162 166 167 169 178 179 180 181 182 185 188 192 196 198 199 195 192 188 185 183 181 183 185 187 190 192 193 194 197 199
242 222 241 244 249 235 212 229 224 234 231 230 250 254 100 141 162 158 163 165 169 170 169 178 179 181 183 184 186 190 196 200 201 199 198 196 192 191 189 190 191 194 197 200 206 208 210 212 216
233 257 249 239 243 233 197 220 231 230 234 234 220 227 164 158 156 162 165 169 173 173 175 176 180 182 185 187 190 192 195 198 199 198 199 198 196 197 199 201 202 203 210 214 220 224 227 230 232
212 239 238 232 227 231 199 222 188 193 219 212 204 251 275 181 163 167 170 173 178 179 182 179 180 183 184 189 191 191 193 194 197 200 201 200 201 204 210 210 212 215 220 223 226 231 235 239 243
212 231 237 247 250 244 190 218 182 196 198 202 197 168 83 161 178 181 182 180 183 183 185 184 183 185 184 188 195 193 195 195 197 201 201 200 200 208 208 219 221 224 228 231 233 237 238 241 243
222 237 241 244 238 253 232 208 202 222 210 218 199 159 155 181 197 198 195 192 187 186 187 189 186 188 186 190 193 192 195 196 199 203 205 201 204 212 214 218 225 227 230 236 239 240 242 241 239
248 233 244 243 234 238 237 239 245 237 239 223 202 239 279 241 216 209 203 197 190 189 189 190 191 193 189 194 196 197 198 200 199 204 210 206 208 213 215 218 224 227 226 230 228 237 235 239 244
229 245 229 244 241 235 251 247 245 244 238 236 244 255 259 251 237 217 204 198 193 192 193 194 195 199 200 195 202 202 202 207 207 209 217 212 214 217 219 222 223 227 231 235 234 239 243 249 252
224 240 248 240 240 243 248 250 239 237 245 249 250 252 247 241 227 208 199 197 195 194 195 194 199 205 207 208 204 206 208 213 210 214 217 223 223 224 222 227 231 231 233 237 240 244 249 257 253
254 247 240 244 247 240 251 256 238 240 238 236 237 242 235 229 224 212 205 203 203 202 198 200 205 209 214 217 217 214 214 212 217 219 224 232 231 228 230 232 234 236 237 236 241 244 252 255 256
230 236 246 229 219 227 215 255 236 232 224 232 231 236 237 230 224 220 214 209 205 208 204 204 206 212 218 217 220 218 217 218 220 222 225 232 237 234 241 233 237 238 239 244 247 252 257 259 259
219 238 230 243 222 218 207 257 229 218 214 226 227 226 232 230 222 219 212 212 207 205 208 208 209 213 222 223 218 219 220 221 222 224 226 231 235 236 240 243 235 240 247 246 247 253 257 259 262
223 223 246 233 230 214 226 243 237 176 218 220 223 222 222 226 220 219 213 208 206 213 212 210 214 219 223 218 220 220 220 224 221 224 226 230 233 235 236 241 243 245 250 254 257 260 253 258 260
259 275 224 236 231 227 234 250 237 238 237 229 220 227 228 227 227 221 219 215 215 221 224 222 220 225 219 215 215 213 219 221 223 222 222 225 235 240 243 241 244 252 244 250 251 255 263 257 256
242 241 237 242 212 249 247 256 242 238 240 231 231 234 237 230 225 224 221 220 221 225 225 226 228 229 228 229 231 227 224 223 222 224 225 233 242 248 246 238 235 244 246 251 247 249 256 259 254
229 236 240 241 226 244 256 258 248 241 240 240 230 234 232 233 228 224 225 223 221 226 230 226 224 230 226 223 227 228 230 233 233 232 235 236 240 244 243 241 241 239 244 248 256 264 263 264 267
236 229 245 253 238 245 226 258 243 229 232 232 227 227 229 227 228 228 224 224 226 229 232 227 224 223 216 213 219 224 216 221 228 226 219 218 241 250 250 254 254 256 252 258 264 269 260 262 264
239 240 217 231 232 243 241 250 250 240 221 233 230 224 228 228 227 227 226 223 223 225 214 217 210 205 204 209 212 218 201 218 239 199 203 221 236 245 254 245 241 254 261 255 257 254 261 266 260
219 230 213 225 232 233 231 233 249 229 223 230 237 225 222 225 226 226 225 222 215 206 197 195 198 200 199 208 200 197 200 203 201 181 201 202 221 237 240 243 253 255 251 251 258 264 263 263 247
208 204 205 210 216 233 214 223 238 287 250 226 230 220 227 233 223 219 214 200 195 188 184 183 181 186 195 193 189 186 194 191 185 186 187 190 197 210 239 248 253 254 249 247 254 258 256 251 252
199 209 210 198 213 232 208 232 228 235 236 231 204 249 257 220 207 197 187 180 175 170 168 168 174 176 174 173 175 178 179 168 166 167 183 183 194 215 235 237 243 245 249 255 259 262 263 255 257
206 208 225 274 288 268 191 226 267 208 231 225 237 234 180 170 166 164 163 162 159 154 155 156 160 163 164 162 162 154 148 146 166 180 190 210 217 229 235 237 237 244 252 256 259 260 258 255 258
228 211 218 217 241 216 238 235 229 210 215 213 205 155 148 155 146 141 147 145 143 143 142 143 145 147 147 149 148 152 154 155 149 153 161 162 157 173 215 248 260 264 267 268 275 293 285 269 269
209 227 212 209 241 235 235 224 111 294 155 198 170 140 145 146 139 142 132 132 129 130 131 133 136 138 139 142 141 135 133 133 130 126 120 110 103 92 85 78 55 358 306 285 278 274 274 273 271
215 207 208 213 208 242 276 249 58 84 145 172 171 145 129 126 133 132 128 128 129 123 120 118 120 120 120 119 122 122 123 123 121 115 110 104 96 82 65 59 41 14 347 323 320 322 315 323 320